Weather History for KHOU - January, 2014

Change the Weather History Date:

Saturday, January 25, 2014

  Actual Average Record
Temperature  
Mean Temperature 45 °F 53 °F  
Max Temperature 61 °F 63 °F 81 °F (1971)
Min Temperature 29 °F 44 °F 19 °F (1894)
Degree Days  
Heating Degree Days 20 12  
Month to date heating degree days 377 318  
Since 1 July heating degree days 1069 857  
Moisture  
Dew Point 31 °F    
Average Humidity 59    
Maximum Humidity 85    
Minimum Humidity 32    
Precipitation  
Precipitation 0.00 in 0.11 in 2.83 in (2012)
Month to date precipitation 0.91 2.70  
Year to date precipitation 0.91 2.70  
Sea Level Pressure  
Sea Level Pressure 30.21 in    
Wind  
Wind Speed 6 mph (SW)    
Max Wind Speed 13 mph    
Max Gust Speed 18 mph    
Visibility 10 miles    
Events      
T = Trace of Precipitation, MM = Missing Value Source: NWS Daily Summary

Daily Weather History Graph

Daily Weather History Graph

Search for Another Location

Airport or City:

Trip Planner

Search our weather history database for the weather conditions in past years. The results will help you decide how hot, cold, wet, or windy it might be!

Date:

Astronomy

Jan. 25, 2014 Rise Set
Actual Time 7:14 AM CST 5:53 PM CST
Civil Twilight 6:48 AM CST 6:18 PM CST
Nautical Twilight 6:20 AM CST 6:47 PM CST
Astronomical Twilight 5:51 AM CST 7:15 PM CST
Moon 1:49 AM CST (1/25) 12:53 PM CST (1/25)
Length of Visible Light 11h 29m
Length of Day
10h 38m
Waning Crescent, 34% of the Moon is Illuminated
Jan 25
Waning Crescent
Jan 30
New
Feb 6
First Quarter
Feb 14
Full
Feb 22
Last Quarter

Hourly Weather History & Observations

Time (CST) Temp. Windchill Dew Point Humidity Pressure Visibility Wind Dir Wind Speed Gust Speed Precip Events Conditions
12:53 AM 30.9 °F 26.2 °F 27.0 °F 85% 30.38 in 10.0 mi SW 4.6 mph - N/A   Clear
1:53 AM 30.9 °F 26.2 °F 26.1 °F 82% 30.38 in 10.0 mi West 4.6 mph - N/A   Clear
2:53 AM 30.0 °F 25.2 °F 25.0 °F 82% 30.36 in 10.0 mi WSW 4.6 mph - N/A   Clear
3:53 AM 30.0 °F 24.1 °F 25.0 °F 82% 30.33 in 10.0 mi WSW 5.8 mph - N/A   Clear
4:53 AM 30.0 °F 25.2 °F 24.1 °F 79% 30.32 in 10.0 mi SW 4.6 mph - N/A   Clear
5:53 AM 28.9 °F 23.9 °F 24.1 °F 82% 30.31 in 10.0 mi SW 4.6 mph - N/A   Clear
6:53 AM 28.9 °F 23.9 °F 25.0 °F 85% 30.30 in 10.0 mi SW 4.6 mph - N/A   Partly Cloudy
7:53 AM 30.0 °F 26.5 °F 26.1 °F 85% 30.31 in 10.0 mi SW 3.5 mph - N/A   Mostly Cloudy
8:53 AM 35.1 °F 27.4 °F 28.9 °F 78% 30.30 in 10.0 mi WSW 10.4 mph - N/A   Mostly Cloudy
9:53 AM 39.9 °F 33.9 °F 30.9 °F 70% 30.30 in 10.0 mi WSW 9.2 mph - N/A   Mostly Cloudy
10:53 AM 45.0 °F 39.7 °F 30.9 °F 58% 30.27 in 10.0 mi WSW 10.4 mph - N/A   Mostly Cloudy
11:53 AM 51.1 °F - 32.0 °F 48% 30.23 in 10.0 mi WSW 12.7 mph 23.0 mph N/A   Mostly Cloudy
12:53 PM 53.1 °F - 32.0 °F 45% 30.18 in 10.0 mi WSW 11.5 mph - N/A   Mostly Cloudy
1:53 PM 55.9 °F - 32.0 °F 40% 30.14 in 10.0 mi West 6.9 mph - N/A   Mostly Cloudy
2:53 PM 57.9 °F - 33.1 °F 39% 30.10 in 10.0 mi WSW 10.4 mph - N/A   Mostly Cloudy
3:53 PM 60.1 °F - 33.1 °F 36% 30.10 in 10.0 mi West 9.2 mph - N/A   Mostly Cloudy
4:53 PM 59.0 °F - 35.1 °F 41% 30.10 in 10.0 mi SW 8.1 mph - N/A   Mostly Cloudy
5:53 PM 55.9 °F - 36.0 °F 47% 30.10 in 10.0 mi WSW 6.9 mph - N/A   Mostly Cloudy
6:53 PM 54.0 °F - 37.0 °F 53% 30.10 in 10.0 mi WSW 4.6 mph - N/A   Mostly Cloudy
7:53 PM 52.0 °F - 37.9 °F 59% 30.10 in 10.0 mi Calm Calm - N/A   Mostly Cloudy
8:53 PM 48.9 °F - 37.0 °F 64% 30.09 in 10.0 mi Calm Calm - N/A   Mostly Cloudy
9:53 PM 48.0 °F - 37.9 °F 68% 30.09 in 10.0 mi SSW 5.8 mph - N/A   Mostly Cloudy
10:53 PM 46.9 °F - 37.9 °F 71% 30.08 in 10.0 mi South 4.6 mph - N/A   Mostly Cloudy
11:53 PM 46.0 °F 43.9 °F 39.0 °F 76% 30.07 in 10.0 mi SSW 4.6 mph - N/A   Mostly Cloudy